Weather History for Moriarty, NM

Change the Weather History Date:

Sunday, April 28, 2013

  Actual Average (KABQ) Record (KABQ)
Temperature  
Mean Temperature 51 °F 60 °F  
Max Temperature 77 °F 73 °F 87 °F (1981)
Min Temperature 25 °F 47 °F 27 °F (1918)
Degree Days  
Heating Degree Days 14 6  
Month to date heating degree days 267  
Since 1 July heating degree days 4094  
Cooling Degree Days 0 1  
Month to date cooling degree days 4  
Year to date cooling degree days 4  
Growing Degree Days 1 (Base 50)    
Moisture  
Dew Point 3 °F    
Average Humidity 14    
Maximum Humidity 30    
Minimum Humidity 7    
Precipitation  
Precipitation 0.00 in 0.02 in 1.17 in (1985)
Month to date precipitation 0.58  
Year to date precipitation 2.01  
Snow  
Snow 0.00 in - - ()
Month to date snowfall  
Since 1 July snowfall  
Snow Depth -    
Sea Level Pressure  
Sea Level Pressure 30.10 in    
Wind  
Wind Speed 4 mph (West)    
Max Wind Speed 16 mph    
Max Gust Speed 24 mph    
Visibility 10 miles    
Events      
T = Trace of Precipitation, MM = Missing Value Source: NWS Daily Summary

Daily Weather History Graph

Daily Weather History Graph

Search for Another Location

Airport:

Trip Planner

Search our weather history database for the weather conditions in past years. The results will help you decide how hot, cold, wet, or windy it might be!

Date:

Astronomy

Apr. 28, 2013 Rise Set
Actual Time 6:16 AM MDT 7:47 PM MDT
Civil Twilight 5:49 AM MDT 8:14 PM MDT
Nautical Twilight 5:17 AM MDT 8:46 PM MDT
Astronomical Twilight 4:43 AM MDT 9:20 PM MDT
Moon 11:16 PM MDT (4/28) 8:39 AM MDT (4/28)
Length of Visible Light 14h 24m
Length of Day
13h 31m
Waning Gibbous, 88% of the Moon is Illuminated
Apr 28
Waning Gibbous
May 2
Last Quarter
May 9
New
May 17
First Quarter
May 24
Full

Hourly Weather History & Observations

Time (MDT) Temp. Windchill Dew Point Humidity Pressure Visibility Wind Dir Wind Speed Gust Speed Precip Events Conditions
12:15 AM 34.9 °F - -2.7 °F 20% 30.18 in 10.0 mi Calm Calm - N/A   Clear
12:35 AM 35.6 °F 32.8 °F -2.6 °F 20% 30.17 in 10.0 mi SW 3.5 mph - N/A   Clear
12:55 AM 36.3 °F 32.5 °F -3.5 °F 18% 30.17 in 10.0 mi SSE 4.6 mph - N/A   Clear
1:15 AM 39.6 °F - -2.2 °F 17% 30.16 in 10.0 mi Calm Calm - N/A   Clear
1:35 AM 32.2 °F 27.7 °F -4.7 °F 20% 30.16 in 10.0 mi NNE 4.6 mph - N/A   Clear
1:55 AM 33.1 °F - -3.6 °F 21% 30.15 in 10.0 mi Calm Calm - N/A   Clear
2:15 AM 32.4 °F - -4.0 °F 21% 30.15 in 10.0 mi Calm Calm - N/A   Clear
2:35 AM 31.5 °F 28.1 °F -3.6 °F 22% 30.15 in 10.0 mi NE 3.5 mph - N/A   Clear
2:55 AM 31.3 °F 26.6 °F -2.9 °F 23% 30.15 in 10.0 mi South 4.6 mph - N/A   Clear
3:15 AM 32.0 °F 28.7 °F -3.1 °F 22% 30.16 in 10.0 mi South 3.5 mph - N/A   Clear
3:35 AM 31.6 °F - -3.5 °F 22% 30.16 in 10.0 mi Calm Calm - N/A   Clear
3:55 AM 29.8 °F - -5.6 °F 22% 30.15 in 10.0 mi Calm Calm - N/A   Clear
4:15 AM 29.8 °F - -4.0 °F 23% 30.15 in 10.0 mi Calm Calm - N/A   Clear
4:35 AM 27.3 °F 23.4 °F -5.6 °F 24% 30.15 in 10.0 mi North 3.5 mph - N/A   Clear
4:55 AM 25.2 °F 18.3 °F -6.2 °F 25% 30.15 in 10.0 mi NNE 5.8 mph - N/A   Clear
5:15 AM 25.9 °F 18.2 °F -5.1 °F 26% 30.15 in 10.0 mi NE 6.9 mph - N/A   Clear
5:35 AM 25.9 °F 20.3 °F -5.3 °F 26% 30.15 in 10.0 mi NNE 4.6 mph - N/A   Clear
6:15 AM 25.5 °F - -2.6 °F 30% 30.16 in 10.0 mi Calm Calm - N/A   Clear
6:35 AM 27.7 °F 21.3 °F -3.1 °F 26% 30.16 in 10.0 mi NE 5.8 mph - N/A   Clear
7:15 AM 32.5 °F - -0.6 °F 24% 30.17 in 10.0 mi Calm Calm - N/A   Clear
7:35 AM 36.9 °F - -1.3 °F 20% 30.18 in 10.0 mi Calm Calm - N/A   Clear
7:55 AM 41.5 °F - -1.3 °F 17% 30.18 in 10.0 mi Calm Calm - N/A   Clear
8:15 AM 46.2 °F - -0.2 °F 15% 30.18 in 10.0 mi Calm Calm - N/A   Clear
8:35 AM 50.0 °F - 1.6 °F 14% 30.18 in 10.0 mi Calm Calm - N/A   Clear
8:55 AM 54.1 °F - 4.5 °F 13% 30.18 in 10.0 mi Calm Calm - N/A   Clear
9:15 AM 56.5 °F - 5.9 °F 13% 30.17 in 10.0 mi Calm Calm - N/A   Clear
9:35 AM 61.3 °F - 8.6 °F 12% 30.17 in 10.0 mi North 3.5 mph - N/A   Clear
9:55 AM 63.7 °F - 10.0 °F 12% 30.16 in 10.0 mi Calm Calm - N/A   Clear
10:15 AM 66.2 °F - 11.1 °F 12% 30.16 in 10.0 mi Calm Calm - N/A   Clear
10:35 AM 67.6 °F - 11.1 °F 11% 30.16 in 10.0 mi Calm Calm - N/A   Clear
10:55 AM 70.0 °F - 11.7 °F 11% 30.15 in 10.0 mi Calm Calm - N/A   Clear
11:15 AM 71.4 °F - 9.1 °F 9% 30.14 in 10.0 mi West 4.6 mph - N/A   Clear
11:35 AM 72.5 °F - 9.7 °F 9% 30.14 in 10.0 mi WNW 9.2 mph - N/A   Clear
11:55 AM 72.1 °F - 9.7 °F 9% 30.13 in 10.0 mi WSW 5.8 mph - N/A   Clear
12:15 PM 73.8 °F - 9.7 °F 9% 30.12 in 10.0 mi South 9.2 mph - N/A   Clear
12:35 PM 74.3 °F - 9.5 °F 8% 30.11 in 10.0 mi West 9.2 mph - N/A   Clear
12:55 PM 75.0 °F - 9.3 °F 8% 30.11 in 10.0 mi West 6.9 mph - N/A   Clear
1:15 PM 76.3 °F - 10.6 °F 8% 30.10 in 10.0 mi NW 16.1 mph 24.2 mph N/A   Clear
1:35 PM 75.6 °F - 10.2 °F 8% 30.10 in 10.0 mi WNW 4.6 mph - N/A   Clear
1:55 PM 76.8 °F - 10.9 °F 8% 30.09 in 10.0 mi WNW 13.8 mph 24.2 mph N/A   Clear
2:15 PM 76.8 °F - 10.6 °F 8% 30.08 in 10.0 mi West 11.5 mph 19.6 mph N/A   Clear
2:55 PM 77.5 °F - 10.0 °F 8% 30.07 in 10.0 mi West 12.7 mph 21.9 mph N/A   Clear
3:15 PM 76.1 °F - 9.7 °F 8% 30.05 in 10.0 mi WNW 16.1 mph 20.7 mph N/A   Clear
3:35 PM 76.5 °F - 9.7 °F 8% 30.05 in 10.0 mi NW 9.2 mph - N/A   Clear
3:55 PM 76.8 °F - 9.0 °F 7% 30.04 in 10.0 mi WNW 8.1 mph - N/A   Clear
4:15 PM 77.7 °F - 8.6 °F 7% 30.03 in 10.0 mi West 13.8 mph 19.6 mph N/A   Clear
4:35 PM 76.8 °F - 8.2 °F 7% 30.02 in 10.0 mi NW 12.7 mph 19.6 mph N/A   Clear
4:55 PM 77.2 °F - 7.3 °F 7% 30.02 in 10.0 mi WSW 12.7 mph 20.7 mph N/A   Clear
5:15 PM 76.5 °F - 6.6 °F 7% 30.02 in 10.0 mi West 9.2 mph 18.4 mph N/A   Clear
5:35 PM 76.6 °F - 6.8 °F 7% 30.01 in 10.0 mi WSW 10.4 mph 18.4 mph N/A   Clear
5:55 PM 76.1 °F - 5.9 °F 7% 30.01 in 10.0 mi WSW 12.7 mph 19.6 mph N/A   Clear
6:15 PM 75.7 °F - 5.5 °F 7% 30.00 in 10.0 mi West 16.1 mph - N/A   Clear
6:35 PM 75.0 °F - 5.0 °F 7% 30.00 in 10.0 mi West 11.5 mph 18.4 mph N/A   Clear
6:55 PM 73.8 °F - 4.8 °F 7% 30.00 in 10.0 mi West 10.4 mph - N/A   Clear
7:15 PM 72.5 °F - 4.8 °F 7% 30.00 in 10.0 mi West 11.5 mph - N/A   Clear
7:35 PM 68.0 °F - 4.1 °F 8% 30.00 in 10.0 mi SW 8.1 mph - N/A   Clear
7:55 PM 63.0 °F - 3.7 °F 9% 30.01 in 10.0 mi SW 5.8 mph - N/A   Clear
8:15 PM 58.1 °F - 3.0 °F 11% 30.01 in 10.0 mi SW 5.8 mph - N/A   Clear
8:35 PM 57.4 °F - 0.7 °F 10% 30.01 in 10.0 mi WSW 5.8 mph - N/A   Clear
8:55 PM 53.6 °F - -0.9 °F 11% 30.02 in 10.0 mi Calm Calm - N/A   Clear
9:15 PM 51.8 °F - -0.2 °F 12% 30.02 in 10.0 mi WNW 8.1 mph - N/A   Clear
9:55 PM 54.1 °F - 1.0 °F 12% 30.03 in 10.0 mi West 6.9 mph - N/A   Clear
10:15 PM 49.5 °F - -0.9 °F 13% 30.04 in 10.0 mi Calm Calm - N/A   Clear
10:35 PM 51.3 °F - -0.4 °F 12% 30.03 in 10.0 mi Calm Calm - N/A   Clear
10:55 PM 48.7 °F - -0.9 °F 13% 30.02 in 10.0 mi Calm Calm - N/A   Clear
11:15 PM 46.8 °F - -1.7 °F 13% 30.02 in 10.0 mi Calm Calm - N/A   Clear
11:35 PM 48.2 °F - -1.1 °F 13% 30.02 in 10.0 mi Calm Calm - N/A   Clear